Location: Rumah Apan
(2.7833°N, 113.9500°E)
Time: 16:31:43
(UTC+00:00)

USA 267 - Pass Details

Date: 25 July 2021
Orbit: 1101 x 1106 km, 123.0° (Epoch: 02 September)

Event Time Altitude Azimuth Distance (km) Brightness Sun altitude
Rises 11:28:28 0° 48° (NE) 3,909 5.9 -12.6°
Reaches altitude 10° 11:31:02 10° 53° (NE) 2,953 5.2 -13.2°
Maximum altitude 11:37:17 49° 126° (SE) 1,392 3.4 -14.7°
Drops below altitude 10° 11:43:32 10° 199° (SSW) 2,962 5.5 -16.1°
Sets 11:46:06 0° 204° (SSW) 3,921 6.2 -16.7°
